Voltar ao catálogo

ATLAS 5 CENTAUR R/B

AtivoHEO
NORAD 41623·ROCKET BODY·🇺🇸 United States

Lançado Jun 24, 2016 de Cape Canaveral Space Force Station

Loading…

Próximas Passagens (próximas 24 horas)

TLE

AtualizadoSource: Space-Track

Época: Sep 6, 2026, 22:08 UTC

1 41623U 16041B   26249.92290686 -.00000298  00000-0  00000-0 0  9993
2 41623  19.3011 355.5422 6091347 354.5164   0.9925  2.09534502 78119

Acompanhe ATLAS 5 CENTAUR R/B em tempo real com AllMySat

Download on the App Store